Miles City, MT

2:22 AM MDT on March 27, 2017 (GMT -0600)
Wiley

Weather History for KMLS - February, 2014

Change the Weather History Date:

Saturday, February 8, 2014

  Actual Average Record
Temperature  
Mean Temperature -1 °F 22 °F  
Max Temperature 6 °F 33 °F 65 °F (1954)
Min Temperature -8 °F 12 °F -33 °F (1939)
Degree Days  
Heating Degree Days 66 42  
Month to date heating degree days 547 345  
Since 1 July heating degree days 5171 4941  
Cooling Degree Days 0 0  
Month to date cooling degree days 0 0  
Year to date cooling degree days 0 0  
Moisture  
Dew Point -7 °F    
Average Humidity 78    
Maximum Humidity 90    
Minimum Humidity 65    
Precipitation  
Precipitation T in 0.00 in 0.17 in (2002)
Month to date precipitation 0.01 0.05  
Year to date precipitation 0.15 0.37  
Sea Level Pressure  
Sea Level Pressure 30.30 in    
Wind  
Wind Speed 10 mph (WNW)    
Max Wind Speed 21 mph    
Max Gust Speed 24 mph    
Visibility 10 miles    
Events Snow    
T = Trace of Precipitation, MM = Missing Value Source: NWS Daily Summary

Daily Weather History Graph

Daily Weather History Graph

Search for Another Location

Airport or City:

Trip Planner

Search our weather history database for the weather conditions in past years. The results will help you decide how hot, cold, wet, or windy it might be!

Date:

Astronomy

Feb. 08, 2014 Rise Set
Actual Time 7:17 AM MST 5:18 PM MST
Civil Twilight 6:45 AM MST 5:50 PM MST
Nautical Twilight 6:10 AM MST 6:25 PM MST
Astronomical Twilight 5:35 AM MST 7:00 PM MST
Moon 12:09 PM MST (2/8) 2:37 AM MST (2/8)
Length of Visible Light 11h 04m
Length of Day
10h 01m
Waxing Gibbous, 69% of the Moon is Illuminated
Feb 8
Waxing Gibbous
Feb 14
Full
Feb 22
Last Quarter
Mar 1
New
Mar 8
First Quarter

Hourly Weather History & Observations

Time (MST) Temp. Windchill Dew Point Humidity Pressure Visibility Wind Dir Wind Speed Gust Speed Precip Events Conditions
12:53 AM 3.0 °F -9.3 °F -2.0 °F 80% 30.08 in 10.0 mi SW 6.9 mph - N/A   Overcast
1:53 AM -2.9 °F -18.8 °F -7.1 °F 82% 30.09 in 10.0 mi West 9.2 mph - N/A   Clear
2:53 AM -2.9 °F -16.5 °F -6.0 °F 87% 30.10 in 10.0 mi WNW 6.9 mph - N/A   Clear
3:53 AM -7.1 °F -15.9 °F -9.9 °F 87% 30.12 in 10.0 mi West 3.5 mph - N/A   Clear
4:53 AM -6.0 °F -18.6 °F -9.9 °F 83% 30.12 in 10.0 mi West 5.8 mph - N/A   Clear
5:53 AM -7.1 °F -25.9 °F -11.9 °F 79% 30.14 in 10.0 mi WNW 11.5 mph - N/A   Partly Cloudy
6:53 AM -4.0 °F -19.0 °F -9.9 °F 76% 30.16 in 10.0 mi WNW 8.1 mph - N/A   Partly Cloudy
7:53 AM -2.9 °F -19.8 °F -9.0 °F 75% 30.19 in 10.0 mi WNW 10.4 mph - N/A   Mostly Cloudy
8:53 AM -0.9 °F -17.4 °F -9.0 °F 69% 30.23 in 10.0 mi NW 10.4 mph - N/A   Partly Cloudy
9:53 AM 1.9 °F -13.8 °F -7.1 °F 66% 30.25 in 10.0 mi NNW 10.4 mph - N/A   Partly Cloudy
10:53 AM 3.0 °F -13.3 °F -5.1 °F 69% 30.27 in 10.0 mi NNW 11.5 mph - N/A   Mostly Cloudy
11:01 AM 3.0 °F -13.3 °F -6.0 °F 66% 30.10 in 10.0 mi NNW 11.5 mph - N/A   Mostly Cloudy
11:53 AM 3.9 °F -12.2 °F -4.0 °F 70% 30.30 in 10.0 mi NW 11.5 mph - N/A   Clear
12:53 PM 5.0 °F -14.7 °F -4.0 °F 66% 30.30 in 10.0 mi NW 18.4 mph - N/A   Overcast
1:53 PM 6.1 °F -12.8 °F -2.9 °F 67% 30.33 in 10.0 mi NW 17.3 mph - N/A   Overcast
2:53 PM 6.1 °F -12.8 °F -2.9 °F 67% 30.37 in 10.0 mi NW 17.3 mph - N/A   Overcast
3:53 PM 6.1 °F -7.8 °F -2.9 °F 67% 30.41 in 10.0 mi NW 9.2 mph - N/A   Overcast
4:53 PM 5.0 °F -9.1 °F -4.0 °F 66% 30.42 in 10.0 mi NNW 9.2 mph - N/A   Overcast
5:53 PM 3.9 °F -10.4 °F -4.0 °F 70% 30.47 in 10.0 mi NW 9.2 mph - N/A   Mostly Cloudy
6:53 PM -0.0 °F -15.3 °F -7.1 °F 72% 30.49 in 10.0 mi NW 9.2 mph - N/A   Scattered Clouds
7:53 PM -2.9 °F -17.7 °F -8.0 °F 79% 30.50 in 10.0 mi WNW 8.1 mph - N/A   Clear
8:17 PM -2.0 °F -15.4 °F -8.0 °F 76% 30.30 in 10.0 mi West 6.9 mph - N/A   Mostly Cloudy
8:53 PM -0.9 °F -14.1 °F -7.1 °F 75% 30.50 in 10.0 mi West 6.9 mph - N/A   Overcast
9:53 PM -4.0 °F -19.0 °F -9.0 °F 79% 30.50 in 10.0 mi WNW 8.1 mph - N/A   Overcast
10:53 PM -5.1 °F -21.5 °F -9.9 °F 80% 30.51 in 3.0 mi WNW 9.2 mph - 0.00 in Snow Light Snow
11:53 PM -7.1 °F -23.9 °F -11.9 °F 79% 30.50 in 10.0 mi WNW 9.2 mph - 0.00 in   Overcast